#datetime,building,power
2023-06-21T00:00:00,sdl,6.72
2023-06-21T00:01:00,sdl,6.56
2023-06-21T00:02:00,sdl,6.64
2023-06-21T00:03:00,sdl,6.66
2023-06-21T00:04:00,sdl,4.49
2023-06-21T00:05:00,sdl,4.60
2023-06-21T00:06:00,sdl,4.61
2023-06-21T00:07:00,sdl,4.67
2023-06-21T00:08:00,sdl,4.59
2023-06-21T00:09:00,sdl,4.74
2023-06-21T00:10:00,sdl,5.01
2023-06-21T00:11:00,sdl,3.73
2023-06-21T00:12:00,sdl,3.60
2023-06-21T00:13:00,sdl,3.35
2023-06-21T00:14:00,sdl,3.41
2023-06-21T00:15:00,sdl,3.34
2023-06-21T00:16:00,sdl,3.39
2023-06-21T00:17:00,sdl,3.43
2023-06-21T00:18:00,sdl,4.50
2023-06-21T00:19:00,sdl,4.78
2023-06-21T00:20:00,sdl,5.41
2023-06-21T00:21:00,sdl,5.53
2023-06-21T00:22:00,sdl,5.65
2023-06-21T00:23:00,sdl,5.58
2023-06-21T00:24:00,sdl,5.63
2023-06-21T00:25:00,sdl,5.75
2023-06-21T00:26:00,sdl,5.59
2023-06-21T00:27:00,sdl,5.57
2023-06-21T00:28:00,sdl,5.61
2023-06-21T00:29:00,sdl,4.89
2023-06-21T00:30:00,sdl,3.67
2023-06-21T00:31:00,sdl,3.21
2023-06-21T00:32:00,sdl,3.16
2023-06-21T00:33:00,sdl,3.25
2023-06-21T00:34:00,sdl,3.15
2023-06-21T00:35:00,sdl,3.12
2023-06-21T00:36:00,sdl,6.15
2023-06-21T00:37:00,sdl,7.31
2023-06-21T00:38:00,sdl,7.25
2023-06-21T00:39:00,sdl,7.22
2023-06-21T00:40:00,sdl,7.27
2023-06-21T00:41:00,sdl,7.30
2023-06-21T00:42:00,sdl,7.39
2023-06-21T00:43:00,sdl,7.55
2023-06-21T00:44:00,sdl,7.35
2023-06-21T00:45:00,sdl,6.56
2023-06-21T00:46:00,sdl,6.57
2023-06-21T00:47:00,sdl,6.73
2023-06-21T00:48:00,sdl,5.63
2023-06-21T00:49:00,sdl,6.42
2023-06-21T00:50:00,sdl,5.55
2023-06-21T00:51:00,sdl,3.34
2023-06-21T00:52:00,sdl,3.32
2023-06-21T00:53:00,sdl,3.29
2023-06-21T00:54:00,sdl,3.49
2023-06-21T00:55:00,sdl,4.24
2023-06-21T00:56:00,sdl,4.53
2023-06-21T00:57:00,sdl,5.16
2023-06-21T00:58:00,sdl,5.20
2023-06-21T00:59:00,sdl,5.14
2023-06-21T01:00:00,sdl,5.65
2023-06-21T01:01:00,sdl,5.55
2023-06-21T01:02:00,sdl,5.28
2023-06-21T01:03:00,sdl,5.27
2023-06-21T01:04:00,sdl,5.24
2023-06-21T01:05:00,sdl,5.21
2023-06-21T01:06:00,sdl,5.37
2023-06-21T01:07:00,sdl,5.31
2023-06-21T01:08:00,sdl,5.34
2023-06-21T01:09:00,sdl,5.34
2023-06-21T01:10:00,sdl,5.29
2023-06-21T01:11:00,sdl,5.24
2023-06-21T01:12:00,sdl,5.25
2023-06-21T01:13:00,sdl,5.40
2023-06-21T01:14:00,sdl,6.51
2023-06-21T01:15:00,sdl,6.40
2023-06-21T01:16:00,sdl,6.40
2023-06-21T01:17:00,sdl,4.29
2023-06-21T01:18:00,sdl,4.28
2023-06-21T01:19:00,sdl,4.36
2023-06-21T01:20:00,sdl,4.37
2023-06-21T01:21:00,sdl,4.34
2023-06-21T01:22:00,sdl,4.00
2023-06-21T01:23:00,sdl,3.25
2023-06-21T01:24:00,sdl,3.53
2023-06-21T01:25:00,sdl,3.52
2023-06-21T01:26:00,sdl,3.35
2023-06-21T01:27:00,sdl,3.40
2023-06-21T01:28:00,sdl,3.45
2023-06-21T01:29:00,sdl,3.52
2023-06-21T01:30:00,sdl,3.86
2023-06-21T01:31:00,sdl,5.05
2023-06-21T01:32:00,sdl,4.41
2023-06-21T01:33:00,sdl,4.47
2023-06-21T01:34:00,sdl,4.62
2023-06-21T01:35:00,sdl,4.88
2023-06-21T01:36:00,sdl,5.38
2023-06-21T01:37:00,sdl,5.61
2023-06-21T01:38:00,sdl,5.40
2023-06-21T01:39:00,sdl,5.41
2023-06-21T01:40:00,sdl,5.43
2023-06-21T01:41:00,sdl,4.15
2023-06-21T01:42:00,sdl,3.31
2023-06-21T01:43:00,sdl,3.37
2023-06-21T01:44:00,sdl,3.38
2023-06-21T01:45:00,sdl,5.64
2023-06-21T01:46:00,sdl,5.38
2023-06-21T01:47:00,sdl,5.40
2023-06-21T01:48:00,sdl,5.30
2023-06-21T01:49:00,sdl,7.05
2023-06-21T01:50:00,sdl,6.80
2023-06-21T01:51:00,sdl,7.31
2023-06-21T01:52:00,sdl,7.40
2023-06-21T01:53:00,sdl,7.38
2023-06-21T01:54:00,sdl,6.45
2023-06-21T01:55:00,sdl,6.42
2023-06-21T01:56:00,sdl,6.54
2023-06-21T01:57:00,sdl,6.55
2023-06-21T01:58:00,sdl,5.46
2023-06-21T01:59:00,sdl,5.47
2023-06-21T02:00:00,sdl,5.40
2023-06-21T02:01:00,sdl,6.92
2023-06-21T02:02:00,sdl,5.04
2023-06-21T02:03:00,sdl,5.56
2023-06-21T02:04:00,sdl,5.96
2023-06-21T02:05:00,sdl,5.84
2023-06-21T02:06:00,sdl,10.34
2023-06-21T02:07:00,sdl,10.29
2023-06-21T02:08:00,sdl,10.40
2023-06-21T02:09:00,sdl,10.47
2023-06-21T02:10:00,sdl,10.93
2023-06-21T02:11:00,sdl,11.81
2023-06-21T02:12:00,sdl,13.83
2023-06-21T02:13:00,sdl,13.52
2023-06-21T02:14:00,sdl,13.13
2023-06-21T02:15:00,sdl,12.81
2023-06-21T02:16:00,sdl,12.79
2023-06-21T02:17:00,sdl,12.85
2023-06-21T02:18:00,sdl,12.76
2023-06-21T02:19:00,sdl,12.88
2023-06-21T02:20:00,sdl,13.07
2023-06-21T02:21:00,sdl,13.16
2023-06-21T02:22:00,sdl,13.21
2023-06-21T02:23:00,sdl,14.20
2023-06-21T02:24:00,sdl,14.21
2023-06-21T02:25:00,sdl,14.29
2023-06-21T02:26:00,sdl,14.34
2023-06-21T02:27:00,sdl,14.47
2023-06-21T02:28:00,sdl,14.46
2023-06-21T02:29:00,sdl,14.46
2023-06-21T02:30:00,sdl,17.34
2023-06-21T02:31:00,sdl,16.73
2023-06-21T02:32:00,sdl,16.21
2023-06-21T02:33:00,sdl,16.29
2023-06-21T02:34:00,sdl,15.92
2023-06-21T02:35:00,sdl,15.95
2023-06-21T02:36:00,sdl,16.03
2023-06-21T02:37:00,sdl,14.40
2023-06-21T02:38:00,sdl,13.77
2023-06-21T02:39:00,sdl,13.70
2023-06-21T02:40:00,sdl,14.75
2023-06-21T02:41:00,sdl,12.27
2023-06-21T02:42:00,sdl,12.19
2023-06-21T02:43:00,sdl,12.07
2023-06-21T02:44:00,sdl,13.07
2023-06-21T02:45:00,sdl,12.02
2023-06-21T02:46:00,sdl,14.59
2023-06-21T02:47:00,sdl,14.08
2023-06-21T02:48:00,sdl,13.21
2023-06-21T02:49:00,sdl,13.21
2023-06-21T02:50:00,sdl,13.20
2023-06-21T02:51:00,sdl,13.38
2023-06-21T02:52:00,sdl,13.33
2023-06-21T02:53:00,sdl,11.43
2023-06-21T02:54:00,sdl,11.15
2023-06-21T02:55:00,sdl,10.95
2023-06-21T02:56:00,sdl,13.02
2023-06-21T02:57:00,sdl,13.76
2023-06-21T02:58:00,sdl,13.67
2023-06-21T02:59:00,sdl,13.72
2023-06-21T03:00:00,sdl,13.68
2023-06-21T03:01:00,sdl,13.64
2023-06-21T03:02:00,sdl,15.78
2023-06-21T03:03:00,sdl,15.73
2023-06-21T03:04:00,sdl,16.30
2023-06-21T03:05:00,sdl,15.26
2023-06-21T03:06:00,sdl,15.09
2023-06-21T03:07:00,sdl,15.22
2023-06-21T03:08:00,sdl,15.96
2023-06-21T03:09:00,sdl,12.95
2023-06-21T03:10:00,sdl,13.01
2023-06-21T03:11:00,sdl,13.10
2023-06-21T03:12:00,sdl,10.75
2023-06-21T03:13:00,sdl,10.64
2023-06-21T03:14:00,sdl,11.82
2023-06-21T03:15:00,sdl,11.49
2023-06-21T03:16:00,sdl,11.55
2023-06-21T03:17:00,sdl,11.67
2023-06-21T03:18:00,sdl,13.70
2023-06-21T03:19:00,sdl,13.72
2023-06-21T03:20:00,sdl,13.85
2023-06-21T03:21:00,sdl,13.85
2023-06-21T03:22:00,sdl,13.11
2023-06-21T03:23:00,sdl,10.94
2023-06-21T03:24:00,sdl,10.89
2023-06-21T03:25:00,sdl,10.83
2023-06-21T03:26:00,sdl,11.07
2023-06-21T03:27:00,sdl,10.63
2023-06-21T03:28:00,sdl,4.82
2023-06-21T03:29:00,sdl,3.64
2023-06-21T03:30:00,sdl,3.41
2023-06-21T03:31:00,sdl,3.27
2023-06-21T03:32:00,sdl,3.78
2023-06-21T03:33:00,sdl,5.10
2023-06-21T03:34:00,sdl,4.83
2023-06-21T03:35:00,sdl,5.31
2023-06-21T03:36:00,sdl,5.42
2023-06-21T03:37:00,sdl,5.37
2023-06-21T03:38:00,sdl,5.35
2023-06-21T03:39:00,sdl,5.64
2023-06-21T03:40:00,sdl,5.32
2023-06-21T03:41:00,sdl,4.06
2023-06-21T03:42:00,sdl,3.41
2023-06-21T03:43:00,sdl,3.67
2023-06-21T03:44:00,sdl,3.44
2023-06-21T03:45:00,sdl,5.66
2023-06-21T03:46:00,sdl,5.77
2023-06-21T03:47:00,sdl,5.77
2023-06-21T03:48:00,sdl,5.72
2023-06-21T03:49:00,sdl,5.75
2023-06-21T03:50:00,sdl,6.95
2023-06-21T03:51:00,sdl,7.04
2023-06-21T03:52:00,sdl,7.75
2023-06-21T03:53:00,sdl,7.78
2023-06-21T03:54:00,sdl,7.81
2023-06-21T03:55:00,sdl,7.91
2023-06-21T03:56:00,sdl,8.01
2023-06-21T03:57:00,sdl,7.71
2023-06-21T03:58:00,sdl,7.61
2023-06-21T03:59:00,sdl,5.84
2023-06-21T04:00:00,sdl,5.88
2023-06-21T04:01:00,sdl,5.81
2023-06-21T04:02:00,sdl,4.05
2023-06-21T04:03:00,sdl,4.01
2023-06-21T04:04:00,sdl,3.67
2023-06-21T04:05:00,sdl,3.70
2023-06-21T04:06:00,sdl,3.58
2023-06-21T04:07:00,sdl,3.41
2023-06-21T04:08:00,sdl,4.45
2023-06-21T04:09:00,sdl,4.38
2023-06-21T04:10:00,sdl,4.63
2023-06-21T04:11:00,sdl,4.38
2023-06-21T04:12:00,sdl,4.40
2023-06-21T04:13:00,sdl,4.52
2023-06-21T04:14:00,sdl,4.43
2023-06-21T04:15:00,sdl,4.57
2023-06-21T04:16:00,sdl,5.72
2023-06-21T04:17:00,sdl,5.75
2023-06-21T04:18:00,sdl,5.78
2023-06-21T04:19:00,sdl,5.79
2023-06-21T04:20:00,sdl,5.75
2023-06-21T04:21:00,sdl,5.73
2023-06-21T04:22:00,sdl,5.72
2023-06-21T04:23:00,sdl,5.92
2023-06-21T04:24:00,sdl,5.73
2023-06-21T04:25:00,sdl,5.69
2023-06-21T04:26:00,sdl,6.85
2023-06-21T04:27:00,sdl,6.80
2023-06-21T04:28:00,sdl,4.69
2023-06-21T04:29:00,sdl,4.71
2023-06-21T04:30:00,sdl,5.18
2023-06-21T04:31:00,sdl,5.17
2023-06-21T04:32:00,sdl,5.20
2023-06-21T04:33:00,sdl,4.73
2023-06-21T04:34:00,sdl,3.63
2023-06-21T04:35:00,sdl,3.64
2023-06-21T04:36:00,sdl,3.61
2023-06-21T04:37:00,sdl,3.84
2023-06-21T04:38:00,sdl,3.56
2023-06-21T04:39:00,sdl,3.55
2023-06-21T04:40:00,sdl,3.64
2023-06-21T04:41:00,sdl,3.65
2023-06-21T04:42:00,sdl,3.62
2023-06-21T04:43:00,sdl,4.47
2023-06-21T04:44:00,sdl,4.63
2023-06-21T04:45:00,sdl,4.50
2023-06-21T04:46:00,sdl,5.63
2023-06-21T04:47:00,sdl,4.55
2023-06-21T04:48:00,sdl,4.52
2023-06-21T04:49:00,sdl,4.97
2023-06-21T04:50:00,sdl,4.83
2023-06-21T04:51:00,sdl,3.77
2023-06-21T04:52:00,sdl,3.50
2023-06-21T04:53:00,sdl,3.50
2023-06-21T04:54:00,sdl,3.56
2023-06-21T04:55:00,sdl,4.11
2023-06-21T04:56:00,sdl,6.17
2023-06-21T04:57:00,sdl,6.36
2023-06-21T04:58:00,sdl,6.30
2023-06-21T04:59:00,sdl,5.72
2023-06-21T05:00:00,sdl,5.62
2023-06-21T05:01:00,sdl,7.39
2023-06-21T05:02:00,sdl,6.66
2023-06-21T05:03:00,sdl,6.94
2023-06-21T05:04:00,sdl,6.73
2023-06-21T05:05:00,sdl,6.77
2023-06-21T05:06:00,sdl,6.70
2023-06-21T05:07:00,sdl,6.79
2023-06-21T05:08:00,sdl,6.86
2023-06-21T05:09:00,sdl,6.01
2023-06-21T05:10:00,sdl,5.71
2023-06-21T05:11:00,sdl,5.77
2023-06-21T05:12:00,sdl,5.75
2023-06-21T05:13:00,sdl,3.54
2023-06-21T05:14:00,sdl,3.43
2023-06-21T05:15:00,sdl,3.41
2023-06-21T05:16:00,sdl,4.92
2023-06-21T05:17:00,sdl,4.95
2023-06-21T05:18:00,sdl,5.13
2023-06-21T05:19:00,sdl,5.36
2023-06-21T05:20:00,sdl,6.18
2023-06-21T05:21:00,sdl,6.27
2023-06-21T05:22:00,sdl,10.59
2023-06-21T05:23:00,sdl,10.71
2023-06-21T05:24:00,sdl,10.85
2023-06-21T05:25:00,sdl,10.87
2023-06-21T05:26:00,sdl,11.02
2023-06-21T05:27:00,sdl,13.16
2023-06-21T05:28:00,sdl,12.40
2023-06-21T05:29:00,sdl,13.01
2023-06-21T05:30:00,sdl,12.87
2023-06-21T05:31:00,sdl,12.67
2023-06-21T05:32:00,sdl,12.94
2023-06-21T05:33:00,sdl,13.25
2023-06-21T05:34:00,sdl,15.54
2023-06-21T05:35:00,sdl,15.60
2023-06-21T05:36:00,sdl,15.55
2023-06-21T05:37:00,sdl,15.80
2023-06-21T05:38:00,sdl,16.53
2023-06-21T05:39:00,sdl,16.54
2023-06-21T05:40:00,sdl,16.78
2023-06-21T05:41:00,sdl,16.70
2023-06-21T05:42:00,sdl,16.70
2023-06-21T05:43:00,sdl,14.97
2023-06-21T05:44:00,sdl,12.40
2023-06-21T05:45:00,sdl,12.33
2023-06-21T05:46:00,sdl,12.10
2023-06-21T05:47:00,sdl,11.36
2023-06-21T05:48:00,sdl,11.26
2023-06-21T05:49:00,sdl,11.26
2023-06-21T05:50:00,sdl,11.34
2023-06-21T05:51:00,sdl,11.27
2023-06-21T05:52:00,sdl,11.23
2023-06-21T05:53:00,sdl,13.77
2023-06-21T05:54:00,sdl,13.08
2023-06-21T05:55:00,sdl,12.98
2023-06-21T05:56:00,sdl,11.55
2023-06-21T05:57:00,sdl,12.00
2023-06-21T05:58:00,sdl,11.97
2023-06-21T05:59:00,sdl,13.81
2023-06-21T06:00:00,sdl,13.72
2023-06-21T06:01:00,sdl,13.94
2023-06-21T06:02:00,sdl,13.67
2023-06-21T06:03:00,sdl,13.61
2023-06-21T06:04:00,sdl,12.94
2023-06-21T06:05:00,sdl,14.96
2023-06-21T06:06:00,sdl,14.77
2023-06-21T06:07:00,sdl,14.98
2023-06-21T06:08:00,sdl,12.59
2023-06-21T06:09:00,sdl,12.49
2023-06-21T06:10:00,sdl,12.62
2023-06-21T06:11:00,sdl,12.61
2023-06-21T06:12:00,sdl,12.75
2023-06-21T06:13:00,sdl,12.67
2023-06-21T06:14:00,sdl,12.71
2023-06-21T06:15:00,sdl,13.54
2023-06-21T06:16:00,sdl,13.68
2023-06-21T06:17:00,sdl,15.86
2023-06-21T06:18:00,sdl,13.69
2023-06-21T06:19:00,sdl,13.96
2023-06-21T06:20:00,sdl,13.89
2023-06-21T06:21:00,sdl,14.00
2023-06-21T06:22:00,sdl,13.75
2023-06-21T06:23:00,sdl,13.76
2023-06-21T06:24:00,sdl,10.72
2023-06-21T06:25:00,sdl,10.73
2023-06-21T06:26:00,sdl,10.68
2023-06-21T06:27:00,sdl,10.60
2023-06-21T06:28:00,sdl,11.00
2023-06-21T06:29:00,sdl,10.97
2023-06-21T06:30:00,sdl,10.72
2023-06-21T06:31:00,sdl,10.50
2023-06-21T06:32:00,sdl,10.59
2023-06-21T06:33:00,sdl,13.24
2023-06-21T06:34:00,sdl,13.92
2023-06-21T06:35:00,sdl,13.60
2023-06-21T06:36:00,sdl,13.74
2023-06-21T06:37:00,sdl,13.77
2023-06-21T06:38:00,sdl,13.69
2023-06-21T06:39:00,sdl,11.53
2023-06-21T06:40:00,sdl,11.61
2023-06-21T06:41:00,sdl,11.56
2023-06-21T06:42:00,sdl,11.56
2023-06-21T06:43:00,sdl,11.33
2023-06-21T06:44:00,sdl,11.83
2023-06-21T06:45:00,sdl,6.02
2023-06-21T06:46:00,sdl,5.42
2023-06-21T06:47:00,sdl,5.40
2023-06-21T06:48:00,sdl,5.58
2023-06-21T06:49:00,sdl,5.40
2023-06-21T06:50:00,sdl,5.37
2023-06-21T06:51:00,sdl,6.73
2023-06-21T06:52:00,sdl,6.73
2023-06-21T06:53:00,sdl,6.73
2023-06-21T06:54:00,sdl,8.12
2023-06-21T06:55:00,sdl,8.38
2023-06-21T06:56:00,sdl,9.07
2023-06-21T06:57:00,sdl,9.09
2023-06-21T06:58:00,sdl,8.86
2023-06-21T06:59:00,sdl,8.79
2023-06-21T07:00:00,sdl,9.04
2023-06-21T07:01:00,sdl,9.00
2023-06-21T07:02:00,sdl,8.83
2023-06-21T07:03:00,sdl,8.74
2023-06-21T07:04:00,sdl,6.64
2023-06-21T07:05:00,sdl,6.64
2023-06-21T07:06:00,sdl,4.51
2023-06-21T07:07:00,sdl,4.40
2023-06-21T07:08:00,sdl,4.54
2023-06-21T07:09:00,sdl,4.53
2023-06-21T07:10:00,sdl,4.52
2023-06-21T07:11:00,sdl,4.35
2023-06-21T07:12:00,sdl,5.60
2023-06-21T07:13:00,sdl,5.90
2023-06-21T07:14:00,sdl,7.04
2023-06-21T07:15:00,sdl,6.82
2023-06-21T07:16:00,sdl,6.94
2023-06-21T07:17:00,sdl,6.95
2023-06-21T07:18:00,sdl,6.98
2023-06-21T07:19:00,sdl,7.27
2023-06-21T07:20:00,sdl,6.80
2023-06-21T07:21:00,sdl,7.95
2023-06-21T07:22:00,sdl,6.88
2023-06-21T07:23:00,sdl,7.04
2023-06-21T07:24:00,sdl,7.75
2023-06-21T07:25:00,sdl,9.07
2023-06-21T07:26:00,sdl,8.75
2023-06-21T07:27:00,sdl,8.13
2023-06-21T07:28:00,sdl,12.31
2023-06-21T07:29:00,sdl,12.26
2023-06-21T07:30:00,sdl,13.33
2023-06-21T07:31:00,sdl,13.48
2023-06-21T07:32:00,sdl,11.86
2023-06-21T07:33:00,sdl,12.39
2023-06-21T07:34:00,sdl,14.46
2023-06-21T07:35:00,sdl,14.54
2023-06-21T07:36:00,sdl,14.50
2023-06-21T07:37:00,sdl,14.54
2023-06-21T07:38:00,sdl,13.73
2023-06-21T07:39:00,sdl,13.72
2023-06-21T07:40:00,sdl,13.71
2023-06-21T07:41:00,sdl,13.88
2023-06-21T07:42:00,sdl,13.68
2023-06-21T07:43:00,sdl,13.71
2023-06-21T07:44:00,sdl,13.59
2023-06-21T07:45:00,sdl,13.62
2023-06-21T07:46:00,sdl,14.67
2023-06-21T07:47:00,sdl,12.22
2023-06-21T07:48:00,sdl,12.32
2023-06-21T07:49:00,sdl,12.27
2023-06-21T07:50:00,sdl,12.38
2023-06-21T07:51:00,sdl,12.43
2023-06-21T07:52:00,sdl,13.15
2023-06-21T07:53:00,sdl,13.00
2023-06-21T07:54:00,sdl,12.80
2023-06-21T07:55:00,sdl,12.53
2023-06-21T07:56:00,sdl,14.05
2023-06-21T07:57:00,sdl,14.00
2023-06-21T07:58:00,sdl,13.95
2023-06-21T07:59:00,sdl,13.90
2023-06-21T08:00:00,sdl,13.96
2023-06-21T08:01:00,sdl,16.17
2023-06-21T08:02:00,sdl,16.07
2023-06-21T08:03:00,sdl,14.85
2023-06-21T08:04:00,sdl,14.67
2023-06-21T08:05:00,sdl,15.19
2023-06-21T08:06:00,sdl,15.02
2023-06-21T08:07:00,sdl,14.81
2023-06-21T08:08:00,sdl,14.66
2023-06-21T08:09:00,sdl,14.57
2023-06-21T08:10:00,sdl,14.48
2023-06-21T08:11:00,sdl,14.46
2023-06-21T08:12:00,sdl,16.71
2023-06-21T08:13:00,sdl,16.98
2023-06-21T08:14:00,sdl,13.83
2023-06-21T08:15:00,sdl,13.79
2023-06-21T08:16:00,sdl,13.73
2023-06-21T08:17:00,sdl,13.68
2023-06-21T08:18:00,sdl,14.09
2023-06-21T08:19:00,sdl,5.70
2023-06-21T08:20:00,sdl,5.37
2023-06-21T08:21:00,sdl,6.03
2023-06-21T08:22:00,sdl,6.41
2023-06-21T08:23:00,sdl,7.09
2023-06-21T08:24:00,sdl,7.06
2023-06-21T08:25:00,sdl,7.15
2023-06-21T08:26:00,sdl,6.98
2023-06-21T08:27:00,sdl,6.91
2023-06-21T08:28:00,sdl,7.19
2023-06-21T08:29:00,sdl,7.19
2023-06-21T08:30:00,sdl,7.21
2023-06-21T08:31:00,sdl,7.09
2023-06-21T08:32:00,sdl,8.23
2023-06-21T08:33:00,sdl,5.92
2023-06-21T08:34:00,sdl,4.98
2023-06-21T08:35:00,sdl,4.93
2023-06-21T08:36:00,sdl,4.83
2023-06-21T08:37:00,sdl,4.74
2023-06-21T08:38:00,sdl,4.66
2023-06-21T08:39:00,sdl,4.61
2023-06-21T08:40:00,sdl,4.60
2023-06-21T08:41:00,sdl,5.76
2023-06-21T08:42:00,sdl,8.20
2023-06-21T08:43:00,sdl,8.50
2023-06-21T08:44:00,sdl,9.15
2023-06-21T08:45:00,sdl,8.91
2023-06-21T08:46:00,sdl,9.53
2023-06-21T08:47:00,sdl,9.39
2023-06-21T08:48:00,sdl,9.01
2023-06-21T08:49:00,sdl,8.95
2023-06-21T08:50:00,sdl,9.09
2023-06-21T08:51:00,sdl,7.12
2023-06-21T08:52:00,sdl,7.04
2023-06-21T08:53:00,sdl,6.97
2023-06-21T08:54:00,sdl,6.88
2023-06-21T08:55:00,sdl,5.55
2023-06-21T08:56:00,sdl,5.48
2023-06-21T08:57:00,sdl,7.50
2023-06-21T08:58:00,sdl,7.37
2023-06-21T08:59:00,sdl,10.06
2023-06-21T09:00:00,sdl,9.44
2023-06-21T09:01:00,sdl,9.04
2023-06-21T09:02:00,sdl,10.56
2023-06-21T09:03:00,sdl,10.76
2023-06-21T09:04:00,sdl,11.30
2023-06-21T09:05:00,sdl,11.82
2023-06-21T09:06:00,sdl,14.36
2023-06-21T09:07:00,sdl,18.51
2023-06-21T09:08:00,sdl,18.86
2023-06-21T09:09:00,sdl,18.31
2023-06-21T09:10:00,sdl,18.32
2023-06-21T09:11:00,sdl,18.81
2023-06-21T09:12:00,sdl,19.12
2023-06-21T09:13:00,sdl,21.71
2023-06-21T09:14:00,sdl,21.92
2023-06-21T09:15:00,sdl,21.91
2023-06-21T09:16:00,sdl,22.05
2023-06-21T09:17:00,sdl,22.57
2023-06-21T09:18:00,sdl,21.49
2023-06-21T09:19:00,sdl,21.62
2023-06-21T09:20:00,sdl,21.91
2023-06-21T09:21:00,sdl,21.70
2023-06-21T09:22:00,sdl,21.92
2023-06-21T09:23:00,sdl,22.28
2023-06-21T09:24:00,sdl,23.18
2023-06-21T09:25:00,sdl,20.84
2023-06-21T09:26:00,sdl,21.09
2023-06-21T09:27:00,sdl,21.01
2023-06-21T09:28:00,sdl,21.08
2023-06-21T09:29:00,sdl,21.19
2023-06-21T09:30:00,sdl,21.47
2023-06-21T09:31:00,sdl,21.68
2023-06-21T09:32:00,sdl,21.52
2023-06-21T09:33:00,sdl,21.33
2023-06-21T09:34:00,sdl,18.57
2023-06-21T09:35:00,sdl,18.75
2023-06-21T09:36:00,sdl,18.18
2023-06-21T09:37:00,sdl,18.23
2023-06-21T09:38:00,sdl,18.04
2023-06-21T09:39:00,sdl,18.03
2023-06-21T09:40:00,sdl,18.14
2023-06-21T09:41:00,sdl,18.13
2023-06-21T09:42:00,sdl,18.09
2023-06-21T09:43:00,sdl,18.04
2023-06-21T09:44:00,sdl,20.39
2023-06-21T09:45:00,sdl,19.37
2023-06-21T09:46:00,sdl,19.38
2023-06-21T09:47:00,sdl,19.18
2023-06-21T09:48:00,sdl,19.13
2023-06-21T09:49:00,sdl,20.49
2023-06-21T09:50:00,sdl,19.60
2023-06-21T09:51:00,sdl,18.60
2023-06-21T09:52:00,sdl,18.53
2023-06-21T09:53:00,sdl,20.98
2023-06-21T09:54:00,sdl,20.54
2023-06-21T09:55:00,sdl,16.40
2023-06-21T09:56:00,sdl,16.27
2023-06-21T09:57:00,sdl,12.89
2023-06-21T09:58:00,sdl,14.08
2023-06-21T09:59:00,sdl,13.25
2023-06-21T10:00:00,sdl,12.96
2023-06-21T10:01:00,sdl,12.84
2023-06-21T10:02:00,sdl,13.62
2023-06-21T10:03:00,sdl,12.79
2023-06-21T10:04:00,sdl,12.99
2023-06-21T10:05:00,sdl,12.81
2023-06-21T10:06:00,sdl,10.57
2023-06-21T10:07:00,sdl,9.76
2023-06-21T10:08:00,sdl,8.85
2023-06-21T10:09:00,sdl,10.08
2023-06-21T10:10:00,sdl,9.02
2023-06-21T10:11:00,sdl,9.77
2023-06-21T10:12:00,sdl,9.12
2023-06-21T10:13:00,sdl,9.26
2023-06-21T10:14:00,sdl,10.29
2023-06-21T10:15:00,sdl,10.43
2023-06-21T10:16:00,sdl,9.47
2023-06-21T10:17:00,sdl,9.77
2023-06-21T10:18:00,sdl,9.61
2023-06-21T10:19:00,sdl,11.58
2023-06-21T10:20:00,sdl,11.66
2023-06-21T10:21:00,sdl,14.50
2023-06-21T10:22:00,sdl,14.66
2023-06-21T10:23:00,sdl,14.68
2023-06-21T10:24:00,sdl,14.82
2023-06-21T10:25:00,sdl,13.40
2023-06-21T10:26:00,sdl,13.40
2023-06-21T10:27:00,sdl,14.17
2023-06-21T10:28:00,sdl,14.23
2023-06-21T10:29:00,sdl,13.89
2023-06-21T10:30:00,sdl,13.76
2023-06-21T10:31:00,sdl,14.10
2023-06-21T10:32:00,sdl,12.62
2023-06-21T10:33:00,sdl,10.39
2023-06-21T10:34:00,sdl,11.38
2023-06-21T10:35:00,sdl,8.68
2023-06-21T10:36:00,sdl,8.64
2023-06-21T10:37:00,sdl,7.32
2023-06-21T10:38:00,sdl,7.61
2023-06-21T10:39:00,sdl,7.28
2023-06-21T10:40:00,sdl,12.92
2023-06-21T10:41:00,sdl,12.22
2023-06-21T10:42:00,sdl,11.17
2023-06-21T10:43:00,sdl,10.74
2023-06-21T10:44:00,sdl,10.84
2023-06-21T10:45:00,sdl,11.23
2023-06-21T10:46:00,sdl,18.41
2023-06-21T10:47:00,sdl,15.04
2023-06-21T10:48:00,sdl,14.39
2023-06-21T10:49:00,sdl,15.30
2023-06-21T10:50:00,sdl,14.88
2023-06-21T10:51:00,sdl,14.86
2023-06-21T10:52:00,sdl,16.20
2023-06-21T10:53:00,sdl,16.54
2023-06-21T10:54:00,sdl,22.48
2023-06-21T10:55:00,sdl,17.02
2023-06-21T10:56:00,sdl,17.16
2023-06-21T10:57:00,sdl,17.18
2023-06-21T10:58:00,sdl,17.27
2023-06-21T10:59:00,sdl,19.36
2023-06-21T11:00:00,sdl,19.28
2023-06-21T11:01:00,sdl,19.36
2023-06-21T11:02:00,sdl,19.56
2023-06-21T11:03:00,sdl,23.71
2023-06-21T11:04:00,sdl,17.97
2023-06-21T11:05:00,sdl,17.89
2023-06-21T11:06:00,sdl,16.94
2023-06-21T11:07:00,sdl,22.04
2023-06-21T11:08:00,sdl,16.39
2023-06-21T11:09:00,sdl,16.47
2023-06-21T11:10:00,sdl,16.31
2023-06-21T11:11:00,sdl,16.14
2023-06-21T11:12:00,sdl,16.54
2023-06-21T11:13:00,sdl,19.14
2023-06-21T11:14:00,sdl,18.54
2023-06-21T11:15:00,sdl,18.07
2023-06-21T11:16:00,sdl,17.90
2023-06-21T11:17:00,sdl,15.51
2023-06-21T11:18:00,sdl,15.58
2023-06-21T11:19:00,sdl,17.01
2023-06-21T11:20:00,sdl,16.53
2023-06-21T11:21:00,sdl,15.94
2023-06-21T11:22:00,sdl,16.07
2023-06-21T11:23:00,sdl,14.64
2023-06-21T11:24:00,sdl,13.24
2023-06-21T11:25:00,sdl,13.67
2023-06-21T11:26:00,sdl,14.86
2023-06-21T11:27:00,sdl,9.59
2023-06-21T11:28:00,sdl,9.42
2023-06-21T11:29:00,sdl,11.02
2023-06-21T11:30:00,sdl,10.96
2023-06-21T11:31:00,sdl,11.81
2023-06-21T11:32:00,sdl,11.52
2023-06-21T11:33:00,sdl,11.18
2023-06-21T11:34:00,sdl,10.87
2023-06-21T11:35:00,sdl,10.74
2023-06-21T11:36:00,sdl,10.73
2023-06-21T11:37:00,sdl,10.82
2023-06-21T11:38:00,sdl,10.62
2023-06-21T11:39:00,sdl,9.32
2023-06-21T11:40:00,sdl,9.36
2023-06-21T11:41:00,sdl,9.35
2023-06-21T11:42:00,sdl,9.55
2023-06-21T11:43:00,sdl,7.51
2023-06-21T11:44:00,sdl,7.58
2023-06-21T11:45:00,sdl,7.56
2023-06-21T11:46:00,sdl,7.72
2023-06-21T11:47:00,sdl,7.97
2023-06-21T11:48:00,sdl,7.43
2023-06-21T11:49:00,sdl,8.19
2023-06-21T11:50:00,sdl,9.60
2023-06-21T11:51:00,sdl,10.37
2023-06-21T11:52:00,sdl,13.12
2023-06-21T11:53:00,sdl,12.34
2023-06-21T11:54:00,sdl,12.38
2023-06-21T11:55:00,sdl,12.42
2023-06-21T11:56:00,sdl,12.52
2023-06-21T11:57:00,sdl,12.45
2023-06-21T11:58:00,sdl,14.69
2023-06-21T11:59:00,sdl,12.80
2023-06-21T12:00:00,sdl,13.03
2023-06-21T12:01:00,sdl,12.06
2023-06-21T12:02:00,sdl,12.00
2023-06-21T12:03:00,sdl,12.22
2023-06-21T12:04:00,sdl,12.38
2023-06-21T12:05:00,sdl,12.40
2023-06-21T12:06:00,sdl,12.45
2023-06-21T12:07:00,sdl,12.34
2023-06-21T12:08:00,sdl,12.42
2023-06-21T12:09:00,sdl,13.04
2023-06-21T12:10:00,sdl,14.12
2023-06-21T12:11:00,sdl,14.83
2023-06-21T12:12:00,sdl,14.95
2023-06-21T12:13:00,sdl,14.84
2023-06-21T12:14:00,sdl,14.98
2023-06-21T12:15:00,sdl,19.06
2023-06-21T12:16:00,sdl,19.09
2023-06-21T12:17:00,sdl,19.68
2023-06-21T12:18:00,sdl,20.00
2023-06-21T12:19:00,sdl,20.16
2023-06-21T12:20:00,sdl,20.97
2023-06-21T12:21:00,sdl,20.72
2023-06-21T12:22:00,sdl,20.75
2023-06-21T12:23:00,sdl,20.91
2023-06-21T12:24:00,sdl,20.91
2023-06-21T12:25:00,sdl,21.87
2023-06-21T12:26:00,sdl,21.19
2023-06-21T12:27:00,sdl,20.78
2023-06-21T12:28:00,sdl,20.85
2023-06-21T12:29:00,sdl,20.75
2023-06-21T12:30:00,sdl,20.76
2023-06-21T12:31:00,sdl,20.84
2023-06-21T12:32:00,sdl,21.19
2023-06-21T12:33:00,sdl,20.91
2023-06-21T12:34:00,sdl,22.60
2023-06-21T12:35:00,sdl,22.50
2023-06-21T12:36:00,sdl,23.11
2023-06-21T12:37:00,sdl,22.67
2023-06-21T12:38:00,sdl,21.63
2023-06-21T12:39:00,sdl,21.44
2023-06-21T12:40:00,sdl,21.84
2023-06-21T12:41:00,sdl,21.56
2023-06-21T12:42:00,sdl,21.73
2023-06-21T12:43:00,sdl,21.54
2023-06-21T12:44:00,sdl,21.61
2023-06-21T12:45:00,sdl,21.97
2023-06-21T12:46:00,sdl,21.87
2023-06-21T12:47:00,sdl,21.84
2023-06-21T12:48:00,sdl,21.86
2023-06-21T12:49:00,sdl,21.87
2023-06-21T12:50:00,sdl,22.55
2023-06-21T12:51:00,sdl,22.32
2023-06-21T12:52:00,sdl,22.43
2023-06-21T12:53:00,sdl,22.24
2023-06-21T12:54:00,sdl,22.12
2023-06-21T12:55:00,sdl,23.26
2023-06-21T12:56:00,sdl,24.40
2023-06-21T12:57:00,sdl,23.46
2023-06-21T12:58:00,sdl,21.24
2023-06-21T12:59:00,sdl,21.00
2023-06-21T13:00:00,sdl,20.92
2023-06-21T13:01:00,sdl,20.63
2023-06-21T13:02:00,sdl,20.50
2023-06-21T13:03:00,sdl,14.12
2023-06-21T13:04:00,sdl,14.28
2023-06-21T13:05:00,sdl,11.27
2023-06-21T13:06:00,sdl,10.77
2023-06-21T13:07:00,sdl,10.66
2023-06-21T13:08:00,sdl,10.71
2023-06-21T13:09:00,sdl,9.06
2023-06-21T13:10:00,sdl,6.66
2023-06-21T13:11:00,sdl,6.74
2023-06-21T13:12:00,sdl,6.70
2023-06-21T13:13:00,sdl,6.59
2023-06-21T13:14:00,sdl,7.02
2023-06-21T13:15:00,sdl,6.99
2023-06-21T13:16:00,sdl,6.94
2023-06-21T13:17:00,sdl,8.94
2023-06-21T13:18:00,sdl,9.03
2023-06-21T13:19:00,sdl,8.84
2023-06-21T13:20:00,sdl,8.98
2023-06-21T13:21:00,sdl,9.01
2023-06-21T13:22:00,sdl,10.06
2023-06-21T13:23:00,sdl,9.88
2023-06-21T13:24:00,sdl,10.07
2023-06-21T13:25:00,sdl,9.75
2023-06-21T13:26:00,sdl,9.99
2023-06-21T13:27:00,sdl,9.82
2023-06-21T13:28:00,sdl,9.66
2023-06-21T13:29:00,sdl,9.77
2023-06-21T13:30:00,sdl,7.49